紫金山彗星

C/2021 S4 ( Tsuchinshan )

English version
Home page
Updated on November 14, 2023

---------------------------------------------------------------------

・ プロフィール

発見日 2021年9月29日
発見光度 20.5等
発見者 Hai-bin Zhao (XuYi station, Purple Mountain Observatory)

・ 写真集

・ 軌道要素

Epoch 2023 Sept. 13.0 TT = JDT 2460200.5
T 2024 Jan. 2.19039 TT                                  Rudenko
q   6.6894393            (2000.0)            P               Q
z  +0.0060713      Peri.   72.85649     +0.20617832     -0.97809207
 +/-0.0000028      Node     5.49218     +0.74411418     +0.13764303
e   0.9593862      Incl.   17.47915     +0.63544046     +0.15617395
>From 405 observations 2021 Sept. 8-2023 Aug. 26, mean residual 0".4.

・ 光度変化

        m1 = -7.8 + 5 logΔ + 25.0 log r

---------------------------------------------------------------------

軌道要素はM.P.E.C. 2023-Q150に掲載されたものです。
光度グラフはComet for Windowsで作成したものです。

---------------------------------------------------------------------

Copyright(C) Seiichi Yoshida (comet@aerith.net). All rights reserved.